User: anonymous   Login
Location: Caltech
(34.1382°N, 118.1253°W)
Time: 14:11:41
(UTC-07:00)
Language:

Cosmos 1937 Rocket - Orbit

View from above orbital plane
View from above orbital plane
View from above satellite
View from above satellite

Ground track
Ground track

The orbit data is extracted from the following two-line orbital elements,

1 19039U 88029B   16204.96952163 +.00000084 +00000-0 +36044-4 0  9996
2 19039 074.0467 185.6556 0022476 079.9648 310.5576 14.38324122483239
Epoch (UTC): 22 July 2016 23:16:06
Eccentricity: 0.0022476
inclination: 74.0467°
perigee height: 748 km
apogee height: 780 km
right ascension of ascending node: 185.6556°
argument of perigee: 79.9648°
revolutions per day: 14.38324122
mean anomaly at epoch: 310.5576°
orbit number at epoch: 48323

The dashed part of the orbit path shows where the satellite is in the earth's shadow,  

DLR